Preview of NWS' New Version of Forecast
This preview is not operational and should not be used for support decisions.

Terminal Aerodrome Forecast (TAF)

Issued by National Weather Service (NWS)

                            
000
FTUS42 KKEY 141141
TAFEYW
TAF
KEYW 141141Z 1412/1512 11008KT P6SM SCT025=